Regional Weather Roundup
Issued by NWS

Home | Current Version | Previous Version | Text Only | Print | Product List | Glossary Off
Versions: 1 2 3 4 5 6 7 8 9 10 11 12 13 14 15 16 17 18 19 20 21 22 23 24 25 26 27 28 29 30 31 32 33 34 35 36 37 38 39 40 41 42 43 44 45 46 47 48 49 50

000
ASUS45 KABQ 211610
RWRNM
NEW MEXICO REGIONAL WEATHER ROUNDUP
NATIONAL WEATHER SERVICE ALBUQUERQUE NM
900 AM MST WED FEB 21 2018

NOTE: "FAIR" MEANS FEW OR NO CLOUDS BELOW 12,000 FEET AGL WITH NO
       SIGNIFICANT WEATHER OR OBSTRUCTIONS TO VISION.

      THIS PRODUCT IS RELEASED AS TWO VERSIONS.  ONE VERSION NEAR
      THE TOP OF THE HOUR CONTAINING PRELIMINARY DATA FROM ALBUQUERQUE
      AND OTHER STATIONS.  A FINAL VERSION WITH ADDITIONAL DATA IS
      ISSUED ABOUT 10 MINUTES AFTER THE HOUR.

NMZ501-503-504-510>518-211700-
NORTHWEST PLATEAU/NORTHCENTRAL MOUNTAINS

CITY           SKY/WX    TMP DP  RH WIND       PRES   REMARKS
FARMINGTON     PTSUNNY   24   9  52 E10       30.13F WCI  14
LOS ALAMOS     FLURRIES  26  15  64 SE5       30.13S WCI  20
SANTA FE       CLOUDY    29  17  61 S9        30.14R WCI  20
TAOS           CLOUDY    25  13  60 CALM      30.16R
ANGEL FIRE     LGT SNOW  22  17  81 S3        30.10S

$$
NMZ402-403-502-505>509-211700-
WESTCENTRAL MOUNTAINS/SOUTHWEST MOUNTAINS

CITY           SKY/WX    TMP DP  RH WIND       PRES   REMARKS
GALLUP         FAIR      23  15  71 E7        30.09R WCI  15
GRANTS         FAIR      22  17  81 NW7       30.12S WCI  14
SILVER CITY    PTSUNNY   42  34  71 SE5       30.11R

$$
NMZ407-409-411-412-211700-
SOUTHERN DESERTS

CITY           SKY/WX    TMP DP  RH WIND       PRES   REMARKS
DEMING         FAIR      41  33  73 CALM      30.12R
LAS CRUCES     FAIR      47  33  59 CALM      30.12S
HOLLOMAN AFB   PTSUNNY   47  38  73 SE9       30.14R
ALAMOGORDO     PTSUNNY   45  36  70 S7        30.13R
T OR C         NOT AVBL

$$
NMZ519>523-211700-
CENTRAL VALLEYS/CENTRAL HIGHLANDS

CITY           SKY/WX    TMP DP  RH WIND       PRES   REMARKS
ALBUQUERQUE    PTSUNNY   33  20  58 NW5       30.13S WCI  29
DOUBLE EAGLE   PTSUNNY   32  19  59 N12       30.13R WCI  23
MORIARTY ARPT  FAIR      27  15  61 S8        30.19R WCI  18
CLINES CORNERS FAIR      20   7  57 VRB7      30.16R WCI  11
BELEN          FAIR      36  16  43 CALM      30.14S
SOCORRO        CLOUDY    33  18  53 N8        30.15R WCI  26

$$
NMZ524>526-539-540-211700-
SOUTHCENTRAL MOUNTAINS

CITY           SKY/WX    TMP DP  RH WIND       PRES   REMARKS
RUIDOSO        NOT AVBL

$$
NMZ527>531-211700-
NORTHEAST HIGHLANDS/NORTHEAST PLAINS

CITY           SKY/WX    TMP DP  RH WIND       PRES   REMARKS
LAS VEGAS      CLOUDY    17   8  67 SE6       30.16R WCI   9
RATON          PTSUNNY   17   5  59 VRB5      30.19R WCI  10
CLAYTON        CLOUDY    14  -1  51 NE9       30.28S WCI   2

$$
NMZ532>537-211700-
EASTCENTRAL PLAINS

CITY           SKY/WX    TMP DP  RH WIND       PRES   REMARKS
SANTA ROSA     PTSUNNY   23   0  36 N9        30.26S WCI  13
TUCUMCARI      PTSUNNY   22  -1  36 NE10      30.32R WCI  11
CANNON AFB     CLOUDY    22   1  39 NE10      30.31R WCI  11
CLOVIS AIRPORT NOT AVBL

$$
NMZ028-029-538-211700-
SOUTHEAST PLAINS

CITY           SKY/WX    TMP DP  RH WIND       PRES   REMARKS
ROSWELL        FAIR      30   7  37 N10       30.31R WCI  21
ARTESIA        FAIR      30   7  37 N12       30.32R WCI  21
CARLSBAD       FAIR      33  13  43 NW10      30.31R WCI  25
HOBBS          CLOUDY    25  12  58 N14G22    30.29R WCI  13


$$




USA.gov is the U.S. government's official web portal to all federal, state and local government web resources and services.